Location: Devargunta
(16.7631°N, 80.9077°E)
Time: 16:36:24
(UTC+00:00)

YAOGAN 1 - Pass Details

Date: 19 January 2021
Orbit: 618 x 620 km, 97.9° (Epoch: 25 February)

Event Time Altitude Azimuth Distance (km) Brightness Sun altitude
Rises 13:12:19 0° 153° (SSE) 2,883 5.9 -11.4°
Reaches altitude 10° 13:14:36 10° 145° (SE) 1,979 5.0 -11.9°
Maximum altitude 13:18:36 39° 76° (ENE) 927 3.0 -12.8°
Drops below altitude 10° 13:22:38 10° 7° (N) 1,982 4.9 -13.8°
Sets 13:24:55 0° 0° (N) 2,889 5.8 -14.3°
